[[{"header":{"parameterUnit":"m.s-1","parameterCategory":2,"la1":30.2991,"la2":30.254,"lo1":-89.0895,"lo2":-89.0444,"dy":0.0017,"dx":0.0017,"nx":28,"ny":28,"refTime":"2024-08-11T09:00:00:Z","depth":"0","parameterNumber":2,"parameterNumberName":"U-component_of_CURRENTS"},"data":[0,0,0,0,0,0,0,0,0,0,0,0,0,0,0,0,0,0,0,0,0,0,0,0,0,0,0,0,0,0,0,0,0,0,0,0,0,0,0,0,0,0,0,0,0,0,0,0,0,0,0,0,0,0,0,0,0,0,0.2791,0.2791,0,0.2772,0.2771,0.2771,0.272,0.2719,0.2719,0.2718,0.265,0.2649,0.2647,0,0,0,0,0,0,0,0,0,0,0,0,0,0.2799,0.2799,0.279,0.2791,0.2791,0.2772,0.2771,0.2771,0.272,0.2719,0.2719,0.2718,0.265,0.2649,0.2647,0,0,0,0,0,0,0,0,0,0,0,0,0,0.2784,0.2798,0.279,0.2768,0.2766,0.2772,0.2771,0.277,0.272,0.2719,0.2719,0.2718,0.2651,0.2649,0.2647,0.2651,0,0,0.2641,0.264,0,0,0,0,0,0,0,0,0.2785,0.2783,0.2771,0.277,0.2768,0.2753,0.275,0.273,0.272,0.2731,0.2718,0.2717,0.2684,0.2679,0.267,0.2648,0.2645,0.2641,0.2639,0.2639,0.2638,0,0,0,0,0,0,0,0.2786,0.2783,0.2777,0.2772,0.277,0.2766,0.2762,0.2745,0.2707,0.273,0.2728,0.2736,0.2682,0.2672,0.2668,0.2644,0.2641,0.2639,0.2638,0.2637,0.2658,0.266,0,0,0,0,0,0,0.28,0.2784,0.2778,0.2777,0.2781,0.2766,0.2762,0.2754,0.2708,0.2703,0.2737,0.2734,0.2676,0.267,0.2665,0.2696,0.2639,0.2637,0.2636,0.2656,0.2658,0.266,0,0,0,0,0,0,0.28,0.2799,0.2779,0.2786,0.2784,0.2768,0.2759,0.2754,0.2746,0.2715,0.2707,0.2735,0.2675,0.2668,0.267,0.2692,0.2636,0.2634,0.2654,0.2657,0.2659,0.274,0,0,0,0,0,0,0.28,0.2799,0.2797,0.2787,0.2784,0.2784,0.276,0.2754,0.2755,0.2751,0.2711,0.2703,0.2674,0.2674,0.2668,0.2688,0.2632,0.2652,0.2655,0.2658,0.2735,0.2745,0.2754,0,0,0,0,0,0.28,0.2794,0.2797,0.2797,0.2782,0.2786,0.2783,0.2765,0.2756,0.2754,0.2742,0.2705,0.269,0.2674,0.2667,0.2687,0.265,0.2654,0.2658,0.2731,0.2743,0.2753,0,0,0,0,0,0,0.2787,0.2789,0.2791,0.2784,0.2791,0.2779,0.2779,0.2774,0.2762,0.2757,0.2725,0.2717,0.2726,0.2702,0.2684,0.2705,0.2665,0.2668,0.2723,0.2734,0.2743,0.2728,0.2631,0,0,0,0,0,0.2791,0.2789,0.2796,0.2792,0.2798,0.2794,0.2794,0.2786,0.2779,0.2771,0.2753,0.274,0.2737,0.2732,0.2718,0.2731,0.2736,0.2742,0.2751,0.2759,0.2744,0.279,0.2802,0.2673,0.2673,0.2673,0,0,0.2782,0.2788,0.2784,0.2791,0.2792,0.28,0.2789,0.2793,0.2802,0.2768,0.2772,0.2767,0.2748,0.2762,0.2764,0.2744,0.2808,0.2764,0.277,0.2751,0.2796,0.2808,0.2819,0.2676,0.2675,0.2675,0,0,0.2765,0.2775,0.2768,0.2782,0.2799,0.2806,0.2813,0.2815,0.2818,0.283,0.2817,0.2832,0.2816,0.2819,0.2816,0.287,0.2854,0.2867,0.2901,0.2947,0.2958,0.2967,0.3029,0.3043,0.2874,0.2874,0.2874,0,0.2755,0.2748,0.2768,0.2773,0.2787,0.2812,0.2814,0.283,0.2834,0.2847,0.2838,0.2854,0.2842,0.2872,0.2892,0.2889,0.2916,0.286,0.2959,0.2968,0.2976,0.3037,0.3052,0.2878,0.2878,0.2877,0.2877,0,0.2727,0.2737,0.2739,0.2758,0.2779,0.2787,0.2824,0.2846,0.2864,0.288,0.2915,0.2919,0.2925,0.2939,0.2927,0.2984,0.2988,0.2966,0.293,0.2994,0.3055,0.3069,0.2885,0.2883,0.2882,0.2881,0,0,0.265,0.2707,0.2704,0.2725,0.2772,0.2784,0.2826,0.2865,0.289,0.2922,0.2954,0.298,0.2993,0.2991,0.2998,0.3039,0.3141,0.3029,0.3029,0.3088,0.3263,0.3296,0.3314,0.3139,0.3141,0.3142,0.3297,0,0.2617,0.2634,0.2668,0.2693,0.2712,0.2768,0.2803,0.2851,0.2895,0.294,0.2985,0.3012,0.3014,0.3025,0.3074,0.3102,0.3173,0.3101,0.3192,0.3195,0.3214,0.3329,0.3338,0.3478,0.331,0.3313,0.3314,0,0.2564,0.2592,0.2609,0.268,0.269,0.271,0.2779,0.2815,0.2901,0.2933,0.2992,0.3028,0.3097,0.3088,0.3202,0.3157,0.3221,0.3256,0.3263,0.3264,0.3252,0.3379,0.3509,0.3368,0.3335,0.3333,0.3332,0,0.2499,0.2547,0.2567,0.2588,0.2667,0.2685,0.2724,0.2805,0.2837,0.2934,0.2966,0.3059,0.3092,0.3184,0.3271,0.3243,0.3402,0.3371,0.3476,0.348,0.3487,0.3487,0.3482,0.348,0.348,0.348,0.3479,0,0.2451,0.2462,0.2539,0.2547,0.2564,0.2642,0.2667,0.2722,0.2804,0.2846,0.2954,0.2996,0.3115,0.322,0.3303,0.3442,0.344,0.3507,0.3529,0.352,0.3522,0.3395,0.3276,0.3486,0.3484,0.3483,0.3482,0,0.2374,0.2427,0.2447,0.2518,0.2533,0.2543,0.2607,0.2636,0.2726,0.2786,0.2819,0.2956,0.3103,0.3253,0.3406,0.3476,0.3521,0.3661,0.3655,0.3673,0.3617,0.3502,0.3403,0.3315,0.3802,0.3804,0.3806,0,0.2339,0.2344,0.2396,0.2402,0.2426,0.2457,0.2477,0.257,0.2609,0.2751,0.2775,0.2948,0.3074,0.3342,0.3522,0.3737,0.3584,0.3845,0.3787,0.3638,0.3527,0.334,0.3257,0.385,0.3852,0.3854,0.3855,0,0.2257,0.2274,0.2289,0.2301,0.2316,0.2344,0.2387,0.2406,0.2532,0.2605,0.2721,0.2841,0.3144,0.3357,0.3652,0.3792,0.3655,0.3881,0.3728,0.357,0.3364,0.3281,0.3721,0.3868,0.3867,0.3866,0.3865,0.3864,0.2172,0.216,0.2178,0.2184,0.2206,0.2233,0.2232,0.2317,0.2379,0.2503,0.2634,0.281,0.3145,0.3565,0.3691,0.3872,0.3729,0.3843,0.3727,0.356,0.3423,0.3899,0.4054,0.4054,0.4054,0.4054,0.4054,0,0.2054,0.2059,0.2062,0.2066,0.2064,0.2119,0.217,0.2184,0.2246,0.2415,0.2544,0.2857,0.3152,0.3441,0.3752,0.3714,0.3607,0.3629,0.3354,0.3289,0.3755,0.3705,0.3789,0.3789,0.3789,0.3789,0.3789,0.3789,0.1988,0.1946,0.196,0.1923,0.1939,0.193,0.1952,0.2012,0.2119,0.2275,0.244,0.2616,0.2943,0.3281,0.3421,0.3438,0.3146,0.3096,0.2945,0.3259,0.3268,0.3276,0.3203,0.318,0.3179,0.2471,0.2465,0.2461]},{"header":{"parameterUnit":"m.s-1","parameterCategory":2,"la1":30.2991,"la2":30.254,"lo1":-89.0895,"lo2":-89.0444,"dy":0.0017,"dx":0.0017,"nx":28,"ny":28,"refTime":"2024-08-11T09:00:00:Z","depth":"0","parameterNumber":3,"parameterNumberName":"V-component_of_CURRENTS"},"data":[0,0,0,0,0,0,0,0,0,0,0,0,0,0,0,0,0,0,0,0,0,0,0,0,0,0,0,0,0,0,0,0,0,0,0,0,0,0,0,0,0,0,0,0,0,0,0,0,0,0,0,0,0,0,0,0,0,0,-0.1352,-0.1353,0,-0.1418,-0.1419,-0.1419,-0.1461,-0.1462,-0.1462,-0.1462,-0.1583,-0.1586,-0.1588,0,0,0,0,0,0,0,0,0,0,0,0,0,-0.1348,-0.1347,-0.1352,-0.1353,-0.1354,-0.1418,-0.1419,-0.1419,-0.1461,-0.1462,-0.1462,-0.1463,-0.1582,-0.1585,-0.1589,0,0,0,0,0,0,0,0,0,0,0,0,0,-0.1374,-0.1347,-0.1352,-0.1384,-0.1387,-0.1418,-0.1419,-0.142,-0.1461,-0.1462,-0.1462,-0.1463,-0.1581,-0.1585,-0.1589,-0.1604,0,0,-0.1602,-0.1604,0,0,0,0,0,0,0,0,-0.1372,-0.1374,-0.1378,-0.1382,-0.1386,-0.1433,-0.1462,-0.1485,-0.1461,-0.1432,-0.1462,-0.1463,-0.1538,-0.1546,-0.1555,-0.161,-0.1615,-0.1603,-0.1605,-0.1607,-0.1608,0,0,0,0,0,0,0,-0.137,-0.1372,-0.1377,-0.1379,-0.1384,-0.1424,-0.1427,-0.1466,-0.1481,-0.1434,-0.1438,-0.1447,-0.1541,-0.155,-0.1558,-0.1617,-0.1603,-0.1606,-0.1609,-0.1611,-0.1687,-0.1687,0,0,0,0,0,0,-0.136,-0.1369,-0.1375,-0.1379,-0.1382,-0.1423,-0.1427,-0.1416,-0.1479,-0.149,-0.1447,-0.1449,-0.1543,-0.1553,-0.1562,-0.157,-0.1607,-0.1611,-0.1614,-0.1688,-0.1687,-0.1687,0,0,0,0,0,0,-0.1359,-0.1359,-0.1372,-0.1378,-0.1383,-0.1422,-0.141,-0.1417,-0.1428,-0.1489,-0.15,-0.145,-0.1543,-0.1556,-0.1587,-0.1576,-0.1613,-0.1617,-0.1689,-0.1688,-0.1687,-0.1595,0,0,0,0,0,0,-0.1358,-0.1357,-0.1349,-0.1377,-0.1382,-0.1386,-0.141,-0.1418,-0.1434,-0.1437,-0.1496,-0.1507,-0.1545,-0.158,-0.1592,-0.1583,-0.162,-0.1689,-0.1688,-0.1687,-0.1599,-0.1592,-0.1585,0,0,0,0,0,-0.1357,-0.1337,-0.1347,-0.1349,-0.1367,-0.1385,-0.1391,-0.1422,-0.1433,-0.1434,-0.1468,-0.1505,-0.1582,-0.1583,-0.1597,-0.1589,-0.169,-0.1688,-0.1687,-0.1602,-0.1593,-0.1585,0,0,0,0,0,0,-0.1329,-0.134,-0.1352,-0.1336,-0.1359,-0.1393,-0.1393,-0.1417,-0.1443,-0.1441,-0.15,-0.1513,-0.1533,-0.1575,-0.1575,-0.1608,-0.1642,-0.1644,-0.1573,-0.1565,-0.1558,-0.1535,-0.1624,0,0,0,0,0,-0.1318,-0.1306,-0.1331,-0.132,-0.1324,-0.1358,-0.137,-0.1387,-0.1415,-0.1427,-0.1472,-0.1512,-0.1538,-0.1562,-0.1594,-0.1617,-0.1625,-0.1621,-0.1614,-0.1608,-0.1598,-0.1592,-0.1583,-0.1683,-0.1683,-0.1683,0,0,-0.13,-0.1311,-0.1301,-0.1315,-0.1329,-0.1329,-0.1365,-0.137,-0.1379,-0.1436,-0.1458,-0.1488,-0.1537,-0.1553,-0.1567,-0.1589,-0.158,-0.1606,-0.16,-0.1594,-0.159,-0.158,-0.1571,-0.1682,-0.1682,-0.1682,0,0,-0.1264,-0.1268,-0.1246,-0.1259,-0.1279,-0.1303,-0.1302,-0.1333,-0.1353,-0.1377,-0.141,-0.1426,-0.1492,-0.1509,-0.1529,-0.1506,-0.1537,-0.1525,-0.148,-0.1473,-0.1464,-0.1457,-0.1433,-0.1424,-0.1529,-0.1529,-0.1528,0,-0.1247,-0.1221,-0.1246,-0.1234,-0.1237,-0.1287,-0.1268,-0.1297,-0.134,-0.1349,-0.1375,-0.1423,-0.1466,-0.1467,-0.1459,-0.1488,-0.1486,-0.1505,-0.1461,-0.1454,-0.1448,-0.1426,-0.1417,-0.1524,-0.1525,-0.1525,-0.1525,0,-0.1193,-0.1179,-0.1166,-0.1166,-0.1177,-0.1167,-0.1207,-0.1225,-0.1259,-0.129,-0.1302,-0.1346,-0.1376,-0.1388,-0.1421,-0.1398,-0.1408,-0.1444,-0.1476,-0.1432,-0.1412,-0.1404,-0.1517,-0.1519,-0.152,-0.1522,0,0,-0.1137,-0.1128,-0.1124,-0.1106,-0.1135,-0.113,-0.1148,-0.117,-0.116,-0.1217,-0.1203,-0.1251,-0.1274,-0.1297,-0.133,-0.1327,-0.1278,-0.1365,-0.1367,-0.1328,-0.1244,-0.1216,-0.1205,-0.1306,-0.1304,-0.1303,-0.1239,0,-0.1088,-0.1043,-0.106,-0.1021,-0.0998,-0.1042,-0.1047,-0.1076,-0.1112,-0.1117,-0.1167,-0.1168,-0.1243,-0.1233,-0.1248,-0.1266,-0.1257,-0.1291,-0.1305,-0.1305,-0.1274,-0.1196,-0.1137,-0.1073,-0.1232,-0.1231,-0.123,0,-0.1028,-0.1007,-0.0955,-0.0932,-0.0923,-0.0911,-0.0908,-0.0917,-0.0955,-0.0978,-0.1007,-0.1054,-0.1067,-0.1126,-0.1149,-0.1167,-0.1198,-0.1215,-0.1214,-0.1215,-0.1262,-0.1149,-0.1054,-0.1164,-0.1219,-0.122,-0.1221,0,-0.0963,-0.0931,-0.0885,-0.0877,-0.0865,-0.0844,-0.084,-0.0866,-0.0852,-0.0877,-0.0857,-0.0918,-0.0911,-0.0974,-0.1051,-0.1092,-0.1055,-0.1122,-0.1121,-0.112,-0.1086,-0.1083,-0.1088,-0.1121,-0.1121,-0.1121,-0.1121,0,-0.0899,-0.0853,-0.0843,-0.0806,-0.0739,-0.076,-0.0696,-0.0709,-0.0705,-0.0658,-0.0767,-0.0728,-0.0871,-0.0895,-0.0986,-0.1014,-0.1013,-0.1082,-0.1092,-0.1051,-0.1047,-0.1157,-0.1247,-0.1119,-0.1119,-0.112,-0.112,0,-0.0817,-0.0816,-0.075,-0.0718,-0.0699,-0.0645,-0.0592,-0.0545,-0.0558,-0.0493,-0.0492,-0.0564,-0.0589,-0.0717,-0.0791,-0.0898,-0.0986,-0.0961,-0.0894,-0.0898,-0.1019,-0.1106,-0.1115,-0.1153,-0.0945,-0.0944,-0.0943,0,-0.0761,-0.0724,-0.067,-0.0618,-0.059,-0.0522,-0.0468,-0.0469,-0.0418,-0.0379,-0.0329,-0.0351,-0.0348,-0.0453,-0.0626,-0.0749,-0.0895,-0.0801,-0.0879,-0.0984,-0.109,-0.1156,-0.1194,-0.0792,-0.0789,-0.0788,-0.0786,0,-0.0648,-0.064,-0.0584,-0.0494,-0.0421,-0.0343,-0.0266,-0.0211,-0.0195,-0.013,-0.0051,-0.0039,-0.0155,-0.0234,-0.0426,-0.0564,-0.0862,-0.0768,-0.0893,-0.0968,-0.1023,-0.1078,-0.0876,-0.077,-0.0772,-0.0773,-0.0774,-0.0774,-0.0552,-0.0496,-0.0437,-0.0347,-0.0268,-0.0162,-0.0074,0.0006,0.0116,0.0249,0.0213,0.0326,0.0122,-0.0126,-0.0333,-0.0668,-0.0735,-0.0788,-0.0879,-0.0933,-0.0982,-0.0733,-0.064,-0.0641,-0.0642,-0.0643,-0.0643,0,-0.0427,-0.0375,-0.0288,-0.0173,-0.0069,-0.0064,0.0066,0.0167,0.0328,0.0481,0.0584,0.0632,0.0394,0.0068,-0.0378,-0.0692,-0.0851,-0.0898,-0.0993,-0.1026,-0.0799,-0.0808,-0.0727,-0.0727,-0.0727,-0.0727,-0.0727,-0.0727,-0.0348,-0.0242,-0.021,-0.0017,0.006,0.0216,0.0296,0.0446,0.0584,0.0854,0.1013,0.107,0.085,-0.0025,-0.0666,-0.0868,-0.1093,-0.1151,-0.1284,-0.116,-0.1158,-0.1156,-0.1184,-0.1184,-0.1184,-0.1448,-0.1451,-0.1453]}],[{"header":{"parameterUnit":"m.s-1","parameterCategory":2,"la1":30.2991,"la2":30.254,"lo1":-89.0895,"lo2":-89.0444,"dy":0.0017,"dx":0.0017,"nx":28,"ny":28,"refTime":"2024-08-11T09:00:00:Z","depth":"2","parameterNumber":2,"parameterNumberName":"U-component_of_CURRENTS"},"data":[0,0,0,0,0,0,0,0,0,0,0,0,0,0,0,0,0,0,0,0,0,0,0,0,0,0,0,0,0,0,0,0,0,0,0,0,0,0,0,0,0,0,0,0,0,0,0,0,0,0,0,0,0,0,0,0,0,0,0.0891,0.0892,0,0.0972,0.0972,0.0973,0.0973,0.0972,0.0971,0.097,0.0982,0.0983,0.0984,0,0,0,0,0,0,0,0,0,0,0,0,0,0.0756,0.0759,0.089,0.0892,0.0893,0.0972,0.0972,0.0973,0.0973,0.0972,0.0971,0.097,0.0981,0.0983,0.0984,0,0,0,0,0,0,0,0,0,0,0,0,0,0.0822,0.0759,0.089,0.0904,0.0906,0.0971,0.0972,0.0974,0.0973,0.0972,0.0971,0.097,0.0981,0.0982,0.0984,0.102,0,0,0.0989,0.099,0,0,0,0,0,0,0,0,0.0818,0.0826,0.0901,0.0903,0.0906,0.0963,0.093,0.0986,0.0974,0.0946,0.097,0.0969,0.0971,0.0974,0.099,0.1021,0.1021,0.0989,0.099,0.0991,0.0991,0,0,0,0,0,0,0,0.0813,0.0823,0.092,0.0902,0.0905,0.0913,0.0921,0.0941,0.0962,0.0948,0.0949,0.0961,0.0971,0.0988,0.099,0.1021,0.0989,0.0991,0.0992,0.0992,0.1126,0.1128,0,0,0,0,0,0,0.0809,0.0819,0.0918,0.0923,0.086,0.0917,0.0925,0.0944,0.0963,0.0966,0.0963,0.0961,0.0986,0.0988,0.099,0.1077,0.0991,0.0993,0.0993,0.1123,0.1126,0.1129,0,0,0,0,0,0,0.0805,0.0817,0.0915,0.0874,0.0887,0.092,0.0942,0.0946,0.0971,0.0975,0.0976,0.0983,0.0985,0.0988,0.1041,0.1075,0.0993,0.0995,0.112,0.1124,0.1128,0.1223,0,0,0,0,0,0,0.0801,0.0815,0.0835,0.0874,0.0889,0.0968,0.0944,0.0949,0.0981,0.0981,0.0994,0.0993,0.0984,0.1039,0.1042,0.1076,0.0996,0.1117,0.1122,0.1126,0.1216,0.1229,0.124,0,0,0,0,0,0.0796,0.0833,0.0836,0.0848,0.0913,0.097,0.098,0.0996,0.0984,0.101,0.1029,0.0993,0.1071,0.1043,0.1047,0.1081,0.1115,0.1121,0.1126,0.1211,0.1227,0.124,0,0,0,0,0,0,0.08,0.0838,0.0841,0.0891,0.0932,0.0971,0.1,0.1008,0.1045,0.1042,0.1035,0.1038,0.1097,0.1083,0.1052,0.1135,0.1083,0.109,0.1146,0.1161,0.1173,0.1191,0.0997,0,0,0,0,0,0.0808,0.0838,0.0878,0.0923,0.0939,0.097,0.0996,0.101,0.1044,0.1058,0.107,0.1088,0.1124,0.1137,0.1162,0.1211,0.1241,0.1234,0.1246,0.1256,0.1275,0.1357,0.1378,0.1148,0.1148,0.1148,0,0,0.0826,0.0849,0.087,0.0925,0.0951,0.1002,0.0982,0.1031,0.1081,0.1055,0.1123,0.1134,0.115,0.1211,0.1233,0.1201,0.1344,0.1263,0.1272,0.1286,0.1365,0.1388,0.1408,0.1152,0.1151,0.115,0,0,0.0873,0.0893,0.0929,0.0964,0.1011,0.1036,0.1052,0.1098,0.1122,0.119,0.119,0.1236,0.1271,0.1305,0.1322,0.1418,0.141,0.1409,0.148,0.156,0.158,0.1597,0.1693,0.1718,0.1409,0.1409,0.1409,0,0.0894,0.0941,0.0954,0.1,0.1036,0.1053,0.1108,0.115,0.1211,0.1245,0.122,0.1319,0.1324,0.142,0.1452,0.1446,0.1492,0.1421,0.1576,0.1594,0.161,0.1704,0.1731,0.1414,0.1414,0.1413,0.1413,0,0.0964,0.1005,0.1033,0.1091,0.1137,0.1186,0.1237,0.1286,0.1305,0.1343,0.1432,0.1456,0.1512,0.152,0.1515,0.1634,0.1633,0.1587,0.1538,0.164,0.1732,0.1758,0.1422,0.142,0.1418,0.1417,0,0,0.0996,0.1065,0.1076,0.1112,0.1182,0.1231,0.1315,0.1398,0.1458,0.1509,0.1593,0.1661,0.1664,0.1686,0.1687,0.1751,0.1911,0.1721,0.1723,0.1816,0.2114,0.2022,0.2041,0.1889,0.1893,0.1897,0.2142,0,0.1044,0.1134,0.1159,0.1257,0.1305,0.1346,0.1425,0.1505,0.1555,0.1641,0.1686,0.1762,0.1731,0.1759,0.1827,0.1887,0.198,0.1851,0.2002,0.2008,0.1913,0.2068,0.1787,0.1973,0.2168,0.2172,0.2175,0,0.1095,0.115,0.1245,0.1329,0.1354,0.1424,0.1538,0.1609,0.1724,0.176,0.1842,0.1871,0.1997,0.1932,0.2123,0.2042,0.2101,0.2139,0.2148,0.2045,0.1964,0.1898,0.2013,0.2218,0.2215,0.2212,0.2209,0,0.1104,0.1203,0.1279,0.1314,0.1423,0.1482,0.1543,0.1654,0.1714,0.1847,0.19,0.2029,0.2104,0.2201,0.2284,0.222,0.2483,0.2397,0.2387,0.2382,0.2164,0.2131,0.2554,0.2553,0.2553,0.2552,0.2551,0,0.1131,0.1201,0.1294,0.1342,0.1437,0.1509,0.1607,0.1683,0.1793,0.1873,0.1964,0.2051,0.2173,0.2313,0.2368,0.2481,0.2566,0.2452,0.2451,0.2191,0.2159,0.2363,0.2338,0.2561,0.2559,0.2558,0.2556,0,0.1147,0.12,0.1294,0.1409,0.1443,0.152,0.1623,0.1683,0.18,0.191,0.1958,0.2124,0.2316,0.2446,0.2629,0.2586,0.2695,0.2711,0.2408,0.2365,0.2524,0.2501,0.2734,0.2733,0.2733,0.2732,0.2731,0,0.1179,0.1223,0.1331,0.1361,0.1418,0.1515,0.1562,0.1676,0.1731,0.1938,0.1988,0.2222,0.2341,0.2596,0.2556,0.2669,0.2788,0.2502,0.2309,0.2573,0.255,0.2527,0.2506,0.2085,0.208,0.2075,0.2071,0,0.1217,0.1244,0.1294,0.1361,0.1416,0.1479,0.156,0.1609,0.1743,0.1857,0.2034,0.2159,0.2321,0.2293,0.241,0.242,0.2448,0.2406,0.281,0.2055,0.1973,0.1945,0.1944,0.2029,0.2033,0.2036,0.2039,0.204,0.1222,0.125,0.1281,0.1347,0.1392,0.1444,0.1484,0.156,0.1668,0.1816,0.1977,0.2062,0.1975,0.198,0.2016,0.2064,0.2185,0.2118,0.2129,0.2145,0.1998,0.1915,0.1937,0.194,0.1944,0.1946,0.1949,0,0.1207,0.122,0.1262,0.1312,0.1334,0.1396,0.147,0.1494,0.159,0.1677,0.1824,0.1588,0.1574,0.1643,0.1568,0.1564,0.1501,0.1617,0.1507,0.1546,0.1583,0.1403,0.1188,0.1186,0.1185,0.1184,0,0,0.1186,0.1188,0.1213,0.1238,0.1283,0.1319,0.1362,0.1402,0.1429,0.1442,0.1419,0.1457,0.1441,0.1192,0.1196,0.1232,0.1388,0.1197,0.1785,0.1686,0.1721,0.183,0.1594,0,0,0,0,0]},{"header":{"parameterUnit":"m.s-1","parameterCategory":2,"la1":30.2991,"la2":30.254,"lo1":-89.0895,"lo2":-89.0444,"dy":0.0017,"dx":0.0017,"nx":28,"ny":28,"refTime":"2024-08-11T09:00:00:Z","depth":"2","parameterNumber":3,"parameterNumberName":"V-component_of_CURRENTS"},"data":[0,0,0,0,0,0,0,0,0,0,0,0,0,0,0,0,0,0,0,0,0,0,0,0,0,0,0,0,0,0,0,0,0,0,0,0,0,0,0,0,0,0,0,0,0,0,0,0,0,0,0,0,0,0,0,0,0,0,0.0767,0.0766,0,0.0656,0.0654,0.0653,0.053,0.0528,0.0527,0.0525,0.0322,0.0318,0.0314,0,0,0,0,0,0,0,0,0,0,0,0,0,0.0819,0.0819,0.0767,0.0766,0.0765,0.0656,0.0654,0.0653,0.053,0.0528,0.0526,0.0525,0.0323,0.0318,0.0313,0,0,0,0,0,0,0,0,0,0,0,0,0,0.0758,0.0819,0.0767,0.0693,0.0686,0.0657,0.0654,0.0652,0.053,0.0528,0.0526,0.0524,0.0325,0.0319,0.0313,0.032,0,0,0.0294,0.0292,0,0,0,0,0,0,0,0,0.0762,0.0756,0.0705,0.0698,0.069,0.0608,0.0598,0.0537,0.0531,0.0586,0.0525,0.0523,0.0413,0.0399,0.038,0.031,0.0301,0.0294,0.029,0.0287,0.0286,0,0,0,0,0,0,0,0.0766,0.076,0.0719,0.0704,0.0695,0.0648,0.0636,0.0586,0.0509,0.0581,0.0572,0.0566,0.0407,0.0386,0.0374,0.0298,0.0294,0.0288,0.0285,0.0282,0.0103,0.0102,0,0,0,0,0,0,0.0793,0.0765,0.0723,0.0717,0.0725,0.0649,0.0636,0.0633,0.0511,0.0492,0.0568,0.0561,0.0397,0.0381,0.0366,0.0298,0.0287,0.0282,0.0278,0.0105,0.0103,0.0102,0,0,0,0,0,0,0.0794,0.079,0.0728,0.074,0.0729,0.0651,0.0648,0.0632,0.0588,0.0503,0.0481,0.0538,0.0395,0.0374,0.0302,0.0292,0.0279,0.0273,0.0106,0.0104,0.0103,0.0206,0,0,0,0,0,0,0.0796,0.0792,0.0794,0.0742,0.073,0.0708,0.065,0.0632,0.0591,0.0579,0.047,0.045,0.0392,0.0311,0.0296,0.0283,0.0269,0.0107,0.0105,0.0103,0.0204,0.0208,0.0212,0,0,0,0,0,0.0799,0.0811,0.0795,0.0789,0.0737,0.071,0.0698,0.0632,0.0591,0.0581,0.0499,0.0452,0.0286,0.0307,0.0288,0.0273,0.0108,0.0106,0.0103,0.0203,0.0208,0.0212,0,0,0,0,0,0,0.083,0.0798,0.0779,0.078,0.0749,0.069,0.0674,0.0632,0.0562,0.0539,0.0451,0.0426,0.0355,0.0299,0.0323,0.0211,0.0185,0.0179,0.0266,0.027,0.0274,0.0305,0.0264,0,0,0,0,0,0.0845,0.0843,0.0807,0.0806,0.0794,0.0734,0.0712,0.067,0.0607,0.0572,0.0495,0.0407,0.0337,0.0292,0.0223,0.0174,0.0131,0.0145,0.0149,0.0153,0.0162,0.0083,0.0082,0.0094,0.0094,0.0094,0,0,0.0855,0.084,0.0836,0.0813,0.0779,0.0771,0.0713,0.0682,0.0663,0.0563,0.0501,0.0422,0.0326,0.0264,0.0226,0.0213,0.0129,0.015,0.0154,0.0161,0.0081,0.008,0.0079,0.0092,0.0093,0.0093,0,0,0.0873,0.0864,0.0863,0.0848,0.0812,0.0789,0.0782,0.0719,0.0677,0.0625,0.0537,0.046,0.0354,0.0285,0.0238,0.0222,0.0155,0.0182,0.0226,0.015,0.015,0.0149,0.0118,0.0114,0.0182,0.0182,0.0182,0,0.088,0.0877,0.0858,0.0855,0.0847,0.0802,0.0798,0.0766,0.0683,0.0651,0.0613,0.0447,0.0369,0.0292,0.0278,0.0235,0.0189,0.0226,0.016,0.0157,0.0154,0.0123,0.0116,0.0187,0.0186,0.0185,0.0185,0,0.0898,0.0889,0.0889,0.0878,0.0879,0.0864,0.0839,0.0812,0.0762,0.0716,0.0626,0.0522,0.0414,0.0379,0.0323,0.0254,0.023,0.0182,0.0162,0.016,0.0127,0.0118,0.0193,0.0192,0.019,0.0189,0,0,0.0902,0.0898,0.0891,0.0885,0.0883,0.0878,0.0881,0.0853,0.0825,0.0752,0.0702,0.0587,0.0512,0.0452,0.0363,0.0306,0.0253,0.0238,0.0231,0.0234,0.011,0.0159,0.0154,0.0186,0.0184,0.0183,0.0106,0,0.0901,0.0886,0.0909,0.091,0.0895,0.0901,0.0906,0.0885,0.0841,0.0786,0.0696,0.0598,0.0544,0.0464,0.041,0.0283,0.023,0.0281,0.0087,0.0083,0.0147,0.0145,0.0078,0.0009,0.0097,0.0096,0.0095,0,0.0897,0.0882,0.0864,0.0891,0.0893,0.0898,0.0893,0.089,0.0841,0.08,0.0723,0.0642,0.0546,0.0484,0.0322,0.0352,0.0237,0.0159,0.0152,0.0156,0.0115,0.0014,-0.0011,0.008,0.0081,0.0082,0.0083,0,0.0852,0.0862,0.0838,0.084,0.0859,0.0858,0.0872,0.0856,0.0849,0.0769,0.0743,0.0641,0.0549,0.0427,0.0292,0.0275,0.0135,0.008,0.003,0.0033,-0.008,-0.0083,-0.0047,-0.0047,-0.0047,-0.0046,-0.0046,0,0.0834,0.0805,0.0796,0.0772,0.0771,0.0801,0.0796,0.0795,0.0781,0.0777,0.0707,0.0683,0.0519,0.0436,0.0312,0.0181,0.0142,0.005,0.0012,-0.0042,-0.0041,-0.0036,-0.0033,-0.0049,-0.0049,-0.0048,-0.0048,0,0.077,0.0754,0.072,0.0725,0.0732,0.0711,0.0765,0.0773,0.0746,0.0737,0.0707,0.0675,0.0583,0.0467,0.0275,0.0193,0.0063,0.0012,-0.0,-0.0036,0.0006,0.0014,-0.0058,-0.0057,-0.0056,-0.0056,-0.0055,0,0.0716,0.0688,0.0676,0.0674,0.0665,0.0661,0.0692,0.0718,0.0746,0.0752,0.0761,0.0681,0.0695,0.0506,0.028,0.0101,0.0089,-0.0054,-0.0098,0.0033,0.0002,0.0009,0.0016,-0.0213,-0.0214,-0.0214,-0.0215,0,0.0644,0.0632,0.0626,0.0624,0.0632,0.0679,0.0717,0.0745,0.079,0.0826,0.0879,0.0893,0.0691,0.0501,0.0265,0.0137,-0.0017,-0.0068,0.0017,-0.0167,-0.0111,-0.0141,-0.0131,-0.022,-0.022,-0.0219,-0.0219,-0.0219,0.0585,0.0582,0.0597,0.0597,0.0624,0.0697,0.0755,0.0849,0.0935,0.1016,0.1007,0.1,0.0671,0.0357,0.0153,-0.007,-0.0053,-0.0149,-0.015,-0.015,-0.0121,-0.0064,-0.0157,-0.0156,-0.0156,-0.0155,-0.0154,0,0.0546,0.0577,0.0596,0.0621,0.0676,0.0685,0.0797,0.0896,0.1045,0.1074,0.1152,0.0836,0.0622,0.0322,-0.0049,-0.0228,-0.0277,-0.0249,-0.0313,-0.0306,-0.0301,-0.0282,-0.0361,-0.0361,-0.0361,-0.0362,0,0,0.0531,0.0562,0.0592,0.066,0.0688,0.0791,0.0859,0.103,0.1089,0.1165,0.1101,0.0989,0.0585,0.0252,-0.0024,-0.0178,-0.018,-0.0198,-0.0024,-0.0063,-0.0055,-0.0246,-0.0209,0,0,0,0,0]}],[{"header":{"parameterUnit":"m.s-1","parameterCategory":2,"la1":30.2991,"la2":30.254,"lo1":-89.0895,"lo2":-89.0444,"dy":0.0017,"dx":0.0017,"nx":28,"ny":28,"refTime":"2024-08-11T09:00:00:Z","depth":"4","parameterNumber":2,"parameterNumberName":"U-component_of_CURRENTS"},"data":[0,0,0,0,0,0,0,0,0,0,0,0,0,0,0,0,0,0,0,0,0,0,0,0,0,0,0,0,0,0,0,0,0,0,0,0,0,0,0,0,0,0,0,0,0,0,0,0,0,0,0,0,0,0,0,0,0,0,0.0264,0.0265,0,0.0317,0.0318,0.0319,0.0385,0.0386,0.0387,0.0388,0.0387,0.0386,0.0385,0,0,0,0,0,0,0,0,0,0,0,0,0,0.0226,0.0226,0.0264,0.0265,0.0265,0.0317,0.0318,0.0319,0.0385,0.0386,0.0387,0.0388,0.0387,0.0386,0.0385,0,0,0,0,0,0,0,0,0,0,0,0,0,0.0258,0.0226,0.0264,0.0303,0.0307,0.0317,0.0318,0.0319,0.0385,0.0386,0.0388,0.0389,0.0387,0.0386,0.0385,0.0349,0,0,0.038,0.038,0,0,0,0,0,0,0,0,0.0256,0.026,0.0297,0.0301,0.0305,0.0345,0.0304,0.0326,0.0384,0.0357,0.0388,0.039,0.0365,0.0366,0.0376,0.0349,0.0349,0.038,0.038,0.0379,0.0379,0,0,0,0,0,0,0,0.0254,0.0258,0.0287,0.0298,0.0302,0.032,0.0326,0.0309,0.0353,0.036,0.0364,0.0367,0.0368,0.0377,0.0376,0.0349,0.038,0.0379,0.0378,0.0378,0.0302,0.03,0,0,0,0,0,0,0.0242,0.0256,0.0285,0.0288,0.0282,0.0319,0.0327,0.0332,0.0355,0.0359,0.0366,0.037,0.0379,0.0378,0.0376,0.0359,0.0379,0.0378,0.0377,0.0303,0.0301,0.03,0,0,0,0,0,0,0.0241,0.0245,0.0283,0.0272,0.0278,0.0318,0.0324,0.0332,0.0369,0.036,0.0364,0.0397,0.038,0.0378,0.037,0.0359,0.0377,0.0376,0.0304,0.0302,0.0301,0.0309,0,0,0,0,0,0,0.024,0.0244,0.0259,0.0271,0.0278,0.0307,0.0323,0.0332,0.0366,0.0373,0.0387,0.0387,0.0381,0.0372,0.0368,0.0357,0.0375,0.0306,0.0303,0.0301,0.031,0.0307,0.0305,0,0,0,0,0,0.0239,0.0249,0.0259,0.0263,0.0292,0.0307,0.0313,0.0347,0.0367,0.0385,0.0384,0.0388,0.0354,0.037,0.0366,0.0354,0.0307,0.0304,0.0301,0.0311,0.0308,0.0305,0,0,0,0,0,0,0.024,0.0257,0.0268,0.0284,0.0302,0.0318,0.0337,0.0358,0.0374,0.0381,0.0378,0.0377,0.036,0.0353,0.037,0.0322,0.0328,0.0325,0.0337,0.0334,0.0331,0.0357,0.0374,0,0,0,0,0,0.0243,0.0257,0.0273,0.0286,0.0295,0.032,0.0336,0.0356,0.0364,0.0377,0.0379,0.0366,0.034,0.0338,0.0316,0.0297,0.0303,0.0283,0.028,0.0278,0.0294,0.0281,0.028,0.0291,0.0291,0.0291,0,0,0.0244,0.0256,0.0264,0.0287,0.0303,0.0318,0.0334,0.0358,0.037,0.0367,0.0382,0.0359,0.0331,0.0306,0.0297,0.0305,0.0278,0.0275,0.0274,0.0291,0.0278,0.0277,0.0277,0.0289,0.0289,0.029,0,0,0.0246,0.0264,0.0278,0.0294,0.0319,0.0329,0.0341,0.0363,0.0378,0.0377,0.0366,0.0345,0.0321,0.0297,0.0279,0.0249,0.0261,0.0236,0.0253,0.0239,0.0239,0.0239,0.0252,0.0253,0.024,0.024,0.024,0,0.0251,0.027,0.0285,0.0302,0.0317,0.0336,0.0355,0.0362,0.0379,0.038,0.0382,0.0336,0.0314,0.0278,0.0265,0.0246,0.0254,0.027,0.0239,0.0239,0.0239,0.0253,0.0254,0.024,0.024,0.024,0.024,0,0.0261,0.0284,0.0291,0.0318,0.0335,0.0352,0.0362,0.0375,0.0385,0.0387,0.0365,0.033,0.0312,0.0283,0.0267,0.0244,0.0255,0.0236,0.0255,0.0239,0.0253,0.0255,0.024,0.024,0.024,0.024,0,0,0.0247,0.0293,0.0296,0.032,0.0348,0.0362,0.037,0.0383,0.0396,0.0385,0.0391,0.033,0.0328,0.0307,0.0278,0.026,0.0258,0.0256,0.0255,0.0286,0.0255,0.0292,0.0297,0.0239,0.0239,0.0239,0.0269,0,0.0255,0.0293,0.0311,0.0345,0.0367,0.0384,0.0394,0.0404,0.0406,0.0412,0.0371,0.0362,0.0331,0.0326,0.0301,0.0266,0.026,0.0253,0.0252,0.0253,0.0301,0.0299,0.0239,0.027,0.027,0.027,0.027,0,0.0258,0.0287,0.0327,0.0371,0.0382,0.0405,0.0432,0.0443,0.0443,0.0444,0.043,0.0411,0.0384,0.0359,0.0316,0.0318,0.0297,0.0269,0.0269,0.0307,0.0292,0.0285,0.0272,0.0272,0.0272,0.0272,0.0272,0,0.0244,0.0295,0.0331,0.0348,0.0397,0.042,0.0444,0.0457,0.0471,0.0477,0.0488,0.0454,0.0448,0.0407,0.0353,0.0345,0.031,0.0288,0.0305,0.0308,0.0264,0.0263,0.0269,0.0269,0.0269,0.0269,0.0269,0,0.0236,0.0266,0.0337,0.0357,0.0404,0.0435,0.0474,0.0489,0.0514,0.0515,0.0515,0.0495,0.0461,0.043,0.0378,0.0354,0.0334,0.0323,0.0318,0.0265,0.0265,0.0266,0.0265,0.027,0.027,0.0269,0.0269,0,0.0207,0.0252,0.0304,0.0375,0.0401,0.0436,0.0504,0.0523,0.0555,0.0558,0.0567,0.055,0.0518,0.0485,0.0422,0.0402,0.0359,0.0352,0.0324,0.0314,0.0367,0.0366,0.0398,0.04,0.0401,0.0402,0.0403,0,0.0193,0.0221,0.0317,0.0354,0.0393,0.0453,0.0487,0.0537,0.0543,0.0557,0.054,0.0551,0.0525,0.0485,0.0442,0.041,0.0389,0.0398,0.0366,0.0389,0.038,0.0377,0.0374,0.0405,0.0406,0.0406,0.0406,0,0.0167,0.0214,0.0259,0.0342,0.0398,0.0449,0.0492,0.0493,0.052,0.056,0.053,0.053,0.0512,0.0478,0.0486,0.0432,0.0409,0.0411,0.0408,0.0378,0.0397,0.0387,0.0382,0.0411,0.041,0.041,0.041,0,0.0155,0.0182,0.0255,0.0325,0.0398,0.0427,0.0446,0.0461,0.0487,0.05,0.0471,0.047,0.0481,0.0487,0.0449,0.0461,0.0454,0.0446,0.0441,0.0436,0.0434,0.0463,0.0505,0,0,0,0,0,0.0145,0.0179,0.0231,0.0304,0.0373,0.041,0.0446,0.0451,0.0461,0.0447,0.0473,0.0449,0.0461,0.0446,0.0465,0.0457,0.0443,0.048,0.0428,0.0437,0.0431,0.0426,0,0,0,0,0,0,0.0137,0.0191,0.0219,0.0284,0.032,0.0377,0.0395,0.039,0.038,0.0397,0.0395,0.0454,0.045,0.0448,0.0461,0.0466,0.0437,0.0499,0.05,0.044,0.0435,0.0431,0.0423,0,0,0,0,0]},{"header":{"parameterUnit":"m.s-1","parameterCategory":2,"la1":30.2991,"la2":30.254,"lo1":-89.0895,"lo2":-89.0444,"dy":0.0017,"dx":0.0017,"nx":28,"ny":28,"refTime":"2024-08-11T09:00:00:Z","depth":"4","parameterNumber":3,"parameterNumberName":"V-component_of_CURRENTS"},"data":[0,0,0,0,0,0,0,0,0,0,0,0,0,0,0,0,0,0,0,0,0,0,0,0,0,0,0,0,0,0,0,0,0,0,0,0,0,0,0,0,0,0,0,0,0,0,0,0,0,0,0,0,0,0,0,0,0,0,-0.0009,-0.0009,0,-0.0029,-0.003,-0.003,-0.0029,-0.0029,-0.0029,-0.0028,-0.0061,-0.0062,-0.0063,0,0,0,0,0,0,0,0,0,0,0,0,0,0.0042,0.004,-0.0009,-0.0009,-0.0009,-0.0029,-0.003,-0.003,-0.0029,-0.0029,-0.0028,-0.0028,-0.0061,-0.0062,-0.0064,0,0,0,0,0,0,0,0,0,0,0,0,0,0.0019,0.004,-0.0009,-0.0011,-0.0011,-0.0029,-0.003,-0.003,-0.003,-0.0029,-0.0028,-0.0028,-0.006,-0.0062,-0.0064,-0.0087,0,0,-0.0069,-0.007,0,0,0,0,0,0,0,0,0.002,0.0017,-0.001,-0.0011,-0.0011,-0.0025,-0.0024,-0.0049,-0.003,-0.0024,-0.0028,-0.0027,-0.005,-0.0052,-0.0059,-0.0089,-0.009,-0.007,-0.0071,-0.0072,-0.0072,0,0,0,0,0,0,0,0.0022,0.0018,-0.0018,-0.001,-0.0011,-0.0006,-0.0009,-0.0029,-0.0041,-0.0024,-0.0024,-0.0024,-0.005,-0.0057,-0.006,-0.0091,-0.007,-0.0071,-0.0072,-0.0073,-0.0153,-0.0154,0,0,0,0,0,0,0.0025,0.0019,-0.0018,-0.0019,0.0008,-0.0007,-0.0011,-0.0022,-0.0041,-0.0042,-0.0025,-0.0024,-0.0055,-0.0058,-0.0061,-0.0096,-0.0072,-0.0073,-0.0074,-0.0152,-0.0153,-0.0154,0,0,0,0,0,0,0.0026,0.0022,-0.0017,0.0002,-0.0003,-0.0009,-0.0022,-0.0023,-0.0035,-0.0041,-0.0043,-0.0036,-0.0054,-0.0059,-0.009,-0.0097,-0.0074,-0.0076,-0.0151,-0.0152,-0.0154,-0.0161,0,0,0,0,0,0,0.0028,0.0022,0.001,0.0001,-0.0004,-0.0032,-0.0022,-0.0024,-0.0035,-0.0035,-0.0051,-0.0053,-0.0054,-0.0087,-0.0092,-0.0099,-0.0077,-0.0149,-0.0151,-0.0153,-0.0159,-0.0162,-0.0165,0,0,0,0,0,0.0029,0.0015,0.0009,0.0005,-0.0019,-0.0033,-0.0035,-0.0038,-0.0036,-0.0046,-0.0061,-0.0053,-0.0102,-0.009,-0.0095,-0.0102,-0.0148,-0.0151,-0.0153,-0.0158,-0.0162,-0.0165,0,0,0,0,0,0,0.0031,0.0013,0.0007,-0.0013,-0.0024,-0.0032,-0.004,-0.0045,-0.0065,-0.0066,-0.0072,-0.0076,-0.0104,-0.0109,-0.0096,-0.0132,-0.0122,-0.0125,-0.0124,-0.0128,-0.0131,-0.0127,-0.0079,0,0,0,0,0,0.0025,0.0009,-0.0005,-0.0021,-0.0028,-0.0038,-0.0045,-0.0049,-0.0064,-0.0071,-0.0084,-0.0099,-0.0118,-0.0127,-0.0145,-0.0169,-0.0173,-0.0177,-0.018,-0.0182,-0.0184,-0.0203,-0.0208,-0.0161,-0.0161,-0.0161,0,0,0.0025,0.0011,0.0004,-0.0022,-0.003,-0.0043,-0.0041,-0.0055,-0.0071,-0.0073,-0.0102,-0.0114,-0.0129,-0.0153,-0.0166,-0.0157,-0.0197,-0.0185,-0.0186,-0.0187,-0.0206,-0.021,-0.0214,-0.0163,-0.0163,-0.0162,0,0,0.0027,-0.0,-0.0007,-0.0022,-0.0039,-0.0051,-0.0058,-0.0075,-0.0089,-0.0119,-0.0123,-0.0144,-0.0172,-0.0182,-0.019,-0.0224,-0.0215,-0.0225,-0.0233,-0.0251,-0.0255,-0.0258,-0.0264,-0.0268,-0.0222,-0.0222,-0.0222,0,0.0029,0.0012,-0.001,-0.0021,-0.0034,-0.0056,-0.0065,-0.0088,-0.0114,-0.0131,-0.0129,-0.0175,-0.0185,-0.0215,-0.022,-0.0229,-0.0233,-0.0215,-0.0254,-0.0257,-0.026,-0.0266,-0.027,-0.0223,-0.0223,-0.0223,-0.0223,0,0.0031,0.0012,0.0005,-0.002,-0.004,-0.0054,-0.0086,-0.0112,-0.0132,-0.0151,-0.019,-0.0208,-0.0227,-0.0237,-0.0237,-0.0264,-0.0256,-0.0257,-0.0241,-0.0265,-0.027,-0.0273,-0.0224,-0.0223,-0.0223,-0.0223,0,0,0.0053,0.0016,0.0013,0.0002,-0.0042,-0.0054,-0.0095,-0.0132,-0.0154,-0.0189,-0.0215,-0.0249,-0.0251,-0.0262,-0.0266,-0.0284,-0.0305,-0.0275,-0.0276,-0.0273,-0.0337,-0.0316,-0.0318,-0.0308,-0.0309,-0.031,-0.0328,0,0.0064,0.0054,0.0022,-0.0,-0.001,-0.0057,-0.009,-0.0133,-0.0169,-0.0203,-0.0238,-0.0256,-0.0264,-0.0258,-0.0285,-0.0301,-0.0317,-0.0299,-0.0321,-0.0321,-0.0293,-0.0323,-0.0313,-0.0331,-0.0332,-0.0333,-0.0333,0,0.0082,0.0068,0.0062,0.0012,0.0002,-0.0015,-0.0071,-0.0104,-0.0168,-0.0193,-0.0228,-0.0251,-0.0283,-0.0279,-0.0328,-0.0314,-0.0324,-0.034,-0.0341,-0.0322,-0.0308,-0.0305,-0.034,-0.034,-0.0339,-0.0339,-0.0338,0,0.0127,0.009,0.0089,0.0075,0.002,0.0006,-0.0026,-0.009,-0.0118,-0.0169,-0.0184,-0.0242,-0.0248,-0.0291,-0.0323,-0.032,-0.0378,-0.0375,-0.0371,-0.0369,-0.0376,-0.0372,-0.0409,-0.0409,-0.0409,-0.0409,-0.0409,0,0.0151,0.0146,0.0118,0.0117,0.0104,0.0051,0.0029,-0.0014,-0.0068,-0.0103,-0.0155,-0.0186,-0.0249,-0.0293,-0.0328,-0.0363,-0.0379,-0.0379,-0.0378,-0.0379,-0.0375,-0.0378,-0.0374,-0.041,-0.041,-0.0409,-0.0409,0,0.0198,0.0184,0.0178,0.0139,0.0133,0.0126,0.008,0.0051,0.0008,-0.0035,-0.0043,-0.0132,-0.0191,-0.0255,-0.0322,-0.035,-0.0394,-0.0398,-0.039,-0.0388,-0.0371,-0.0367,-0.0398,-0.0398,-0.0397,-0.0397,-0.0397,0,0.0222,0.023,0.0212,0.0213,0.0201,0.0186,0.0166,0.0108,0.0069,-0.0011,-0.0039,-0.0096,-0.0157,-0.0235,-0.031,-0.0376,-0.038,-0.0397,-0.0394,-0.0376,-0.0372,-0.0369,-0.0366,-0.0396,-0.0396,-0.0396,-0.0396,0,0.0247,0.0249,0.0235,0.0256,0.0249,0.0223,0.0188,0.017,0.0085,0.0064,-0.0016,-0.0075,-0.0144,-0.0227,-0.027,-0.0325,-0.039,-0.0393,-0.0394,-0.0392,-0.0374,-0.037,-0.0367,-0.0395,-0.0395,-0.0395,-0.0395,0,0.0259,0.0254,0.0252,0.0265,0.0278,0.0247,0.0217,0.0159,0.0123,0.0035,0.001,-0.0074,-0.0126,-0.0201,-0.0257,-0.0295,-0.0304,-0.0312,-0.0317,-0.0319,-0.0294,-0.026,-0.025,0,0,0,0,0,0.026,0.025,0.0255,0.0241,0.0265,0.0272,0.022,0.0173,0.0113,0.0074,0.0043,-0.0023,-0.0112,-0.017,-0.02,-0.0258,-0.0319,-0.0296,-0.0332,-0.0387,-0.0389,-0.0371,0,0,0,0,0,0,0.0246,0.0254,0.0243,0.0247,0.0254,0.0241,0.0222,0.0159,0.0124,0.0076,0.0031,-0.0001,-0.0088,-0.0066,-0.0182,-0.0202,-0.0227,-0.0341,-0.0341,-0.0386,-0.0388,-0.0389,-0.0372,0,0,0,0,0]}]]